W8APS Weather Reports


time (UTC)temp
C
wind
direction
speed
KPH
gust
KPH
rain 1hr
cm
rain 24hr
cm
rain mn
cm
humidity
%
barometer
mb
20260509024535 10 0 0.0 0.0 0.00 0.00 0.00 64 1007.5
20260509024016 10 0 0.0 0.0 0.00 0.00 0.00 68 1007.5
20260509023515 10 0 0.0 0.0 0.00 0.00 0.00 64 1007.6
20260509023035 10 0 0.0 0.0 0.00 0.00 0.00 58 1007.5
20260509022520 11 0 0.0 0.0 0.00 0.00 0.00 58 1007.4
20260509022015 11 0 0.0 0.0 0.00 0.00 0.00 60 1007.4
20260509021530 11 0 0.0 0.0 0.00 0.00 0.00 55 1007.4
20260509021013 11 0 0.0 0.0 0.00 0.00 0.00 51 1007.5
20260509020516 11 0 0.0 0.0 0.00 0.00 0.00 47 1007.5
20260509020036 11 0 0.0 0.0 0.00 0.00 0.00 47 1007.5
20260509015514 11 0 0.0 0.0 0.00 0.00 0.00 48 1007.4
20260509015015 12 0 0.0 0.0 0.00 0.00 0.00 50 1007.4
20260509014535 12 0 0.0 0.0 0.00 0.00 0.00 49 1007.4
20260509014021 12 0 0.0 1.6 0.00 0.00 0.00 50 1007.3
20260509013521 12 0 0.0 1.6 0.00 0.00 0.00 48 1007.2
20260509013035 12 0 0.0 1.6 0.00 0.00 0.00 50 1007.3
20260509012515 13 0 0.0 1.6 0.00 0.00 0.00 48 1007.1
20260509012015 13 0 0.0 1.6 0.00 0.00 0.00 45 1007.1
20260509011531 13 0 0.0 1.6 0.00 0.00 0.00 45 1007.0
20260509011015 13 0 0.0 0.0 0.00 0.00 0.00 49 1006.9
20260509010514 13 0 0.0 0.0 0.00 0.00 0.00 44 1006.9
20260509010032 14 0 0.0 0.0 0.00 0.00 0.00 44 1006.8
20260509005516 14 0 0.0 1.6 0.00 0.00 0.00 40 1006.7
20260509005015 15 0 0.0 1.6 0.00 0.00 0.00 40 1006.6
20260509004537 15 0 0.0 0.0 0.00 0.00 0.00 39 1006.6
20260509004016 15 0 0.0 1.6 0.00 0.00 0.00 37 1006.7
20260509003517 15 0 0.0 3.2 0.00 0.00 0.00 36 1006.7
20260509003035 15 265 0.0 3.2 0.00 0.00 0.00 35 1006.6
20260509002516 15 0 0.0 1.6 0.00 0.00 0.00 35 1006.6
20260509002014 16 259 0.0 4.8 0.00 0.00 0.00 34 1006.6
20260509001531 16 0 0.0 4.8 0.00 0.00 0.00 35 1006.6
20260509001015 16 0 0.0 9.7 0.00 0.00 0.00 34 1006.5
20260509000516 16 240 1.6 11.3 0.00 0.00 0.00 36 1006.5
20260509000031 16 0 3.2 11.3 0.00 0.00 0.00 35 1006.5
20260508235514 16 198 3.2 11.3 0.00 0.00 0.00 35 1006.5
20260508235016 16 184 6.4 11.3 0.00 0.00 0.00 32 1006.5
20260508234532 16 219 3.2 11.3 0.00 0.00 0.00 32 1006.5
20260508234014 16 162 0.0 11.3 0.00 0.00 0.00 34 1006.4
20260508233515 16 258 3.2 11.3 0.00 0.00 0.00 34 1006.5
20260508233034 16 233 1.6 9.7 0.00 0.00 0.00 34 1006.5
20260508232515 16 236 0.0 9.7 0.00 0.00 0.00 34 1006.5
20260508232016 16 263 4.8 16.1 0.00 0.00 0.00 33 1006.6
20260508231529 16 221 4.8 16.1 0.00 0.00 0.00 32 1006.7
20260508231016 16 224 4.8 16.1 0.00 0.00 0.00 33 1006.6
20260508230516 16 257 4.8 19.3 0.00 0.00 0.00 33 1006.6
20260508230033 16 221 3.2 19.3 0.00 0.00 0.00 31 1006.6
20260508225521 17 271 11.3 19.3 0.00 0.00 0.00 31 1006.5
20260508225014 17 264 6.4 16.1 0.00 0.00 0.00 31 1006.6
20260508224531 17 245 4.8 16.1 0.00 0.00 0.00 32 1006.7
20260508224016 17 142 4.8 16.1 0.00 0.00 0.00 32 1006.7
20260508223516 17 200 4.8 16.1 0.00 0.00 0.00 32 1006.7
20260508223039 17 247 6.4 16.1 0.00 0.00 0.00 32 1006.8
20260508222514 17 202 0.0 11.3 0.00 0.00 0.00 32 1006.8
20260508222018 16 184 1.6 11.3 0.00 0.00 0.00 34 1006.8
20260508221535 16 163 4.8 11.3 0.00 0.00 0.00 33 1006.8
20260508221016 16 0 4.8 16.1 0.00 0.00 0.00 32 1006.9
20260508220517 16 243 6.4 19.3 0.00 0.00 0.00 32 1006.9
20260508220038 17 198 6.4 19.3 0.00 0.00 0.00 32 1006.9
20260508215514 17 200 9.7 25.7 0.00 0.00 0.00 31 1007.0
20260508215014 17 205 8.0 25.7 0.00 0.00 0.00 33 1007.0
20260508214529 17 233 9.7 22.5 0.00 0.00 0.00 29 1007.1
20260508214016 17 255 3.2 16.1 0.00 0.00 0.00 32 1007.0
20260508213516 17 240 3.2 22.5 0.00 0.00 0.00 29 1007.0
20260508213032 17 218 6.4 22.5 0.00 0.00 0.00 31 1007.0
20260508212516 16 298 9.7 22.5 0.00 0.00 0.00 30 1007.1
20260508212013 16 207 8.0 17.7 0.00 0.00 0.00 30 1007.1
20260508211538 16 289 8.0 17.7 0.00 0.00 0.00 29 1007.1
20260508211015 16 179 4.8 16.1 0.00 0.00 0.00 30 1007.1
20260508210514 16 204 4.8 19.3 0.00 0.00 0.00 32 1007.2
20260508210030 16 230 8.0 19.3 0.00 0.00 0.00 30 1007.3
20260508205518 16 226 9.7 19.3 0.00 0.00 0.00 32 1007.2
20260508205015 16 221 6.4 17.7 0.00 0.00 0.00 32 1007.4
20260508204530 16 221 3.2 20.9 0.00 0.00 0.00 32 1007.4
20260508204015 16 178 8.0 20.9 0.00 0.00 0.00 31 1007.5
20260508203514 16 241 8.0 20.9 0.00 0.00 0.00 32 1007.7
20260508203031 16 236 8.0 16.1 0.00 0.00 0.00 32 1007.7
20260508202516 16 214 3.2 16.1 0.00 0.00 0.00 30 1007.7
20260508202015 17 200 3.2 16.1 0.00 0.00 0.00 30 1007.8
20260508201535 16 251 3.2 16.1 0.00 0.00 0.00 32 1007.9
20260508201014 16 283 4.8 11.3 0.00 0.00 0.00 31 1007.9
20260508200514 16 0 0.0 11.3 0.00 0.00 0.00 34 1008.0
20260508200032 15 236 3.2 12.9 0.00 0.00 0.00 31 1008.2
20260508195512 15 221 6.4 19.3 0.00 0.00 0.00 31 1008.3
20260508195016 15 231 8.0 19.3 0.00 0.00 0.00 31 1008.3
20260508194532 15 229 6.4 19.3 0.00 0.00 0.00 31 1008.4
20260508194013 15 214 3.2 20.9 0.00 0.00 0.00 29 1008.6
20260508193516 15 285 6.4 20.9 0.00 0.00 0.00 31 1008.7
20260508193039 15 193 9.7 20.9 0.00 0.00 0.00 30 1008.7
20260508192514 15 180 8.0 17.7 0.00 0.00 0.00 31 1008.8
20260508192018 15 176 3.2 20.9 0.00 0.00 0.00 32 1008.8
20260508191538 15 215 4.8 20.9 0.00 0.00 0.00 32 1008.8
20260508191014 15 215 4.8 20.9 0.00 0.00 0.00 31 1008.9
20260508190516 15 227 1.6 9.7 0.00 0.00 0.00 31 1008.9
20260508190034 15 218 1.6 16.1 0.00 0.00 0.00 31 1008.9
20260508185513 15 225 3.2 22.5 0.00 0.00 0.00 30 1009.0
20260508185014 15 224 8.0 22.5 0.00 0.00 0.00 30 1009.2
20260508184532 15 276 4.8 20.9 0.00 0.00 0.00 31 1009.2
20260508184013 15 219 8.0 22.5 0.00 0.00 0.00 29 1009.2
20260508183516 15 221 9.7 22.5 0.00 0.00 0.00 29 1009.3
20260508183034 15 122 6.4 19.3 0.00 0.00 0.00 30 1009.3
20260508182514 16 240 3.2 12.9 0.00 0.00 0.00 30 1009.3
20260508182014 16 238 3.2 14.5 0.00 0.00 0.00 30 1009.3
20260508181531 15 258 1.6 14.5 0.00 0.00 0.00 30 1009.4
20260508181013 15 226 3.2 14.5 0.00 0.00 0.00 33 1009.5
20260508180512 15 248 4.8 12.9 0.00 0.00 0.00 29 1009.6
20260508180032 15 0 0.0 17.7 0.00 0.00 0.00 30 1009.5
20260508175514 15 205 8.0 17.7 0.00 0.00 0.00 31 1009.7
20260508175014 15 207 4.8 14.5 0.00 0.00 0.00 31 1009.7
20260508174527 15 0 4.8 19.3 0.00 0.00 0.00 30 1009.8
20260508174014 15 195 9.7 19.3 0.00 0.00 0.00 31 1010.0
20260508173513 15 250 3.2 12.9 0.00 0.00 0.00 31 1010.0
20260508173030 15 248 1.6 19.3 0.00 0.00 0.00 30 1010.0
20260508172513 15 278 1.6 19.3 0.00 0.00 0.00 31 1010.1
20260508172013 14 254 9.7 19.3 0.00 0.00 0.00 30 1010.4
20260508171536 15 175 8.0 19.3 0.00 0.00 0.00 29 1010.4
20260508171014 15 184 3.2 12.9 0.00 0.00 0.00 31 1010.4
20260508170514 15 276 1.6 11.3 0.00 0.00 0.00 31 1010.3
20260508170030 14 0 1.6 17.7 0.00 0.00 0.00 31 1010.4
20260508165515 14 249 9.7 17.7 0.00 0.00 0.00 31 1010.7
20260508165014 14 216 3.2 11.3 0.00 0.00 0.00 32 1010.6
20260508164531 14 184 1.6 9.7 0.00 0.00 0.00 33 1010.6
20260508164014 13 172 3.2 14.5 0.00 0.00 0.00 32 1010.7
20260508163514 13 237 6.4 14.5 0.00 0.00 0.00 33 1010.8
20260508163030 14 232 3.2 9.7 0.00 0.00 0.00 33 1010.9
20260508162514 14 0 1.6 14.5 0.00 0.00 0.00 30 1010.9
20260508162013 14 163 3.2 16.1 0.00 0.00 0.00 32 1010.9
20260508161533 13 284 6.4 17.7 0.00 0.00 0.00 33 1011.0
20260508161015 13 234 4.8 17.7 0.00 0.00 0.00 31 1010.9
20260508160514 13 218 6.4 17.7 0.00 0.00 0.00 31 1011.0
20260508160031 13 238 4.8 17.7 0.00 0.00 0.00 32 1011.1
20260508155519 13 233 6.4 16.1 0.00 0.00 0.00 31 1011.2
20260508155015 13 217 6.4 16.1 0.00 0.00 0.00 32 1011.3
20260508154530 13 211 3.2 12.9 0.00 0.00 0.00 33 1011.2
20260508154014 13 170 4.8 11.3 0.00 0.00 0.00 35 1011.2
20260508153516 13 175 0.0 6.4 0.00 0.00 0.00 35 1011.2
20260508153034 13 264 3.2 9.7 0.00 0.00 0.00 34 1011.2
20260508152516 12 0 1.6 9.7 0.00 0.00 0.00 37 1011.3
20260508152018 12 228 4.8 17.7 0.00 0.00 0.00 36 1011.4
20260508151530 12 258 3.2 17.7 0.00 0.00 0.00 35 1011.4
20260508151014 12 281 1.6 9.7 0.00 0.00 0.00 41 1011.4
20260508150518 12 9 4.8 9.7 0.00 0.00 0.00 38 1011.4
20260508150032 12 60 1.6 11.3 0.00 0.00 0.00 36 1011.4
20260508145515 12 239 1.6 11.3 0.00 0.00 0.00 40 1011.4
20260508145016 12 212 3.2 14.5 0.00 0.00 0.00 39 1011.5
20260508144536 12 221 3.2 14.5 0.00 0.00 0.00 39 1011.5
20260508144015 12 226 1.6 8.0 0.00 0.00 0.00 42 1011.5
20260508143518 12 231 1.6 6.4 0.00 0.00 0.00 43 1011.4
20260508143029 12 253 0.0 8.0 0.00 0.00 0.00 45 1011.6
20260508142516 12 246 1.6 9.7 0.00 0.00 0.00 44 1011.6
20260508142015 12 182 3.2 9.7 0.00 0.00 0.00 41 1011.5
20260508141533 12 266 3.2 9.7 0.00 0.00 0.00 42 1011.7
20260508141015 12 228 0.0 4.8 0.00 0.00 0.00 48 1011.8
20260508140514 12 235 1.6 4.8 0.00 0.00 0.00 45 1011.9
20260508140032 12 184 0.0 1.6 0.00 0.00 0.00 47 1011.9
20260508135515 12 0 0.0 3.2 0.00 0.00 0.00 48 1012.0
20260508135014 12 0 0.0 3.2 0.00 0.00 0.00 47 1012.0
20260508134532 12 0 0.0 1.6 0.00 0.00 0.00 49 1012.0
20260508134016 12 160 0.0 1.6 0.00 0.00 0.00 48 1012.0
20260508133519 12 0 0.0 3.2 0.00 0.00 0.00 52 1012.0
20260508133032 11 0 0.0 3.2 0.00 0.00 0.00 54 1012.0
20260508132515 10 0 0.0 3.2 0.00 0.00 0.00 55 1012.0
20260508132014 10 0 0.0 3.2 0.00 0.00 0.00 59 1012.1
20260508131534 10 0 0.0 3.2 0.00 0.00 0.00 57 1012.1
20260508131015 10 157 0.0 3.2 0.00 0.00 0.00 58 1012.1
20260508130518 10 0 0.0 3.2 0.00 0.00 0.00 60 1012.1
20260508130033 9 0 1.6 3.2 0.00 0.00 0.00 60 1012.1
20260508125514 9 210 0.0 3.2 0.00 0.00 0.00 65 1012.0
20260508125016 8 0 0.0 6.4 0.00 0.00 0.00 68 1012.0
20260508124530 8 207 1.6 6.4 0.00 0.00 0.00 67 1012.0
20260508124017 8 190 1.6 6.4 0.00 0.00 0.00 69 1012.0
20260508123517 8 187 3.2 4.8 0.00 0.00 0.00 72 1012.0
20260508123030 8 180 0.0 3.2 0.00 0.00 0.00 75 1011.9
20260508122515 7 0 0.0 3.2 0.00 0.00 0.00 77 1011.7
20260508122016 7 149 1.6 3.2 0.00 0.00 0.00 77 1011.7
20260508121529 7 180 3.2 3.2 0.00 0.00 0.00 77 1011.8
20260508121016 7 198 0.0 1.6 0.00 0.00 0.00 79 1011.6
20260508120516 7 0 0.0 1.6 0.00 0.00 0.00 81 1011.5
20260508120041 7 0 0.0 1.6 0.00 0.00 0.00 80 1011.5
20260508115514 7 0 0.0 1.6 0.00 0.00 0.00 81 1011.5
20260508115017 6 0 0.0 0.0 0.00 0.00 0.00 86 1011.5
20260508114532 6 0 0.0 0.0 0.00 0.00 0.00 90 1011.4
20260508114014 6 0 0.0 0.0 0.00 0.00 0.00 91 1011.4
20260508113514 5 0 0.0 0.0 0.00 0.00 0.00 91 1011.3
20260508113041 5 0 0.0 0.0 0.00 0.00 0.00 91 1011.2
20260508112517 5 0 0.0 0.0 0.00 0.00 0.00 93 1011.2
20260508112016 4 0 0.0 0.0 0.00 0.00 0.00 93 1011.2
20260508111545 4 0 0.0 0.0 0.00 0.00 0.00 94 1011.2
20260508111014 3 0 0.0 0.0 0.00 0.00 0.00 94 1011.2
20260508110517 3 0 0.0 0.0 0.00 0.00 0.00 94 1011.2
20260508110033 3 0 0.0 0.0 0.00 0.00 0.00 94 1011.1
20260508105516 3 0 0.0 0.0 0.00 0.00 0.00 94 1011.1
20260508105020 2 0 0.0 0.0 0.00 0.00 0.00 94 1011.1
20260508104530 2 0 0.0 0.0 0.00 0.00 0.00 94 1011.1
20260508104013 2 0 0.0 0.0 0.00 0.00 0.00 94 1011.1
20260508103517 2 0 0.0 0.0 0.00 0.00 0.00 94 1011.1
20260508103030 2 0 0.0 0.0 0.00 0.00 0.00 94 1011.1
20260508102516 2 0 0.0 0.0 0.00 0.00 0.00 93 1011.2
20260508102016 2 0 0.0 1.6 0.00 0.00 0.00 93 1011.1
20260508101533 2 0 0.0 1.6 0.00 0.00 0.00 93 1011.1
20260508101013 2 333 0.0 1.6 0.00 0.00 0.00 93 1011.2
20260508100515 2 0 0.0 0.0 0.00 0.00 0.00 93 1011.2
20260508100031 2 0 0.0 0.0 0.00 0.00 0.00 93 1011.2
20260508095514 2 0 0.0 1.6 0.00 0.00 0.00 92 1011.2
20260508095017 2 0 0.0 1.6 0.00 0.00 0.00 92 1011.3
20260508094531 2 0 0.0 1.6 0.00 0.00 0.00 92 1011.3
20260508094049 3 0 0.0 0.0 0.00 0.00 0.00 92 1011.4
20260508093513 3 0 0.0 0.0 0.00 0.00 0.00 92 1011.3
20260508093033 3 0 0.0 0.0 0.00 0.00 0.00 92 1011.4
20260508092515 3 0 0.0 0.0 0.00 0.00 0.00 91 1011.4
20260508092011 3 0 0.0 0.0 0.00 0.00 0.00 91 1011.4
20260508091536 3 0 0.0 0.0 0.00 0.00 0.00 91 1011.4
20260508091014 3 0 0.0 0.0 0.00 0.00 0.00 91 1011.4
20260508090512 3 169 0.0 0.0 0.00 0.00 0.00 91 1011.3
20260508090028 3 0 0.0 0.0 0.00 0.00 0.00 91 1011.4
20260508085513 3 0 0.0 0.0 0.00 0.00 0.00 90 1011.4
20260508085013 3 0 0.0 0.0 0.00 0.00 0.00 89 1011.4
20260508084530 3 0 0.0 0.0 0.00 0.00 0.00 89 1011.5
20260508084017 3 0 0.0 0.0 0.00 0.00 0.00 89 1011.5
20260508083512 3 0 0.0 0.0 0.00 0.00 0.00 88 1011.3
20260508083030 3 0 0.0 0.0 0.00 0.00 0.00 88 1011.4
20260508082514 3 0 0.0 0.0 0.00 0.00 0.00 87 1011.5
20260508082014 3 0 0.0 0.0 0.00 0.00 0.00 85 1011.4
20260508081543 4 0 0.0 0.0 0.00 0.00 0.00 86 1011.4
20260508081016 4 0 0.0 0.0 0.00 0.00 0.00 85 1011.5
20260508080518 4 169 0.0 1.6 0.00 0.00 0.00 85 1011.4
20260508080029 5 0 0.0 1.6 0.00 0.00 0.00 84 1011.4
20260508075514 5 131 0.0 1.6 0.00 0.00 0.00 83 1011.4
20260508075013 5 0 0.0 1.6 0.00 0.00 0.00 83 1011.4
20260508074532 5 0 0.0 0.0 0.00 0.00 0.00 82 1011.5
20260508074014 5 0 0.0 0.0 0.00 0.00 0.00 81 1011.3
20260508073514 5 0 0.0 0.0 0.00 0.00 0.00 80 1011.3
20260508073031 5 0 0.0 0.0 0.00 0.00 0.00 80 1011.2
20260508072513 5 0 0.0 1.6 0.00 0.00 0.00 79 1011.2
20260508072013 5 167 0.0 1.6 0.00 0.00 0.00 80 1011.2
20260508071530 5 112 0.0 1.6 0.00 0.00 0.00 80 1011.2
20260508071015 5 0 0.0 1.6 0.00 0.00 0.00 81 1011.3
20260508070514 5 125 0.0 1.6 0.00 0.00 0.00 80 1011.4
20260508070031 5 0 0.0 1.6 0.00 0.00 0.00 80 1011.5
20260508065518 5 354 0.0 3.2 0.00 0.00 0.00 80 1011.5
20260508065013 5 0 0.0 3.2 0.00 0.00 0.00 80 1011.4
20260508064531 5 75 0.0 6.4 0.00 0.00 0.00 79 1011.5
20260508064016 5 37 0.0 6.4 0.00 0.00 0.00 79 1011.6
20260508063516 5 345 3.2 6.4 0.00 0.00 0.00 79 1011.9
20260508063030 5 335 0.0 3.2 0.00 0.00 0.00 79 1011.7
20260508062514 6 1 0.0 3.2 0.00 0.00 0.00 77 1011.7
20260508062014 6 0 0.0 6.4 0.00 0.00 0.00 76 1011.8
20260508061530 6 346 1.6 6.4 0.00 0.00 0.00 76 1011.9
20260508061014 6 8 0.0 3.2 0.00 0.00 0.00 75 1011.7
20260508060519 6 358 0.0 1.6 0.00 0.00 0.00 73 1011.9
20260508060029 6 0 0.0 6.4 0.00 0.00 0.00 72 1012.0
20260508055514 6 347 0.0 11.3 0.00 0.00 0.00 71 1011.9
20260508055013 6 308 1.6 11.3 0.00 0.00 0.00 71 1011.6
20260508054530 6 103 6.4 11.3 0.00 0.00 0.00 69 1011.2
20260508054011 6 108 1.6 8.0 0.00 0.00 0.00 68 1012.0
20260508053515 6 331 1.6 8.0 0.00 0.00 0.00 67 1012.3
20260508053031 6 0 0.0 1.6 0.00 0.00 0.00 67 1011.8
20260508052517 6 0 0.0 1.6 0.00 0.00 0.00 67 1011.8
20260508052011 6 0 0.0 1.6 0.00 0.00 0.00 67 1011.8
20260508051534 6 0 0.0 1.6 0.00 0.00 0.00 68 1011.9
20260508051011 6 0 0.0 4.8 0.00 0.00 0.00 68 1012.0
20260508050516 6 357 1.6 6.4 0.00 0.00 0.00 67 1012.1
20260508050033 6 352 1.6 6.4 0.00 0.00 0.00 66 1012.1
20260508045515 6 25 0.0 4.8 0.00 0.00 0.00 67 1011.9
20260508045014 6 0 0.0 1.6 0.00 0.00 0.00 68 1012.0
20260508044528 6 0 0.0 3.2 0.00 0.00 0.00 69 1011.9
20260508044014 6 0 0.0 3.2 0.00 0.00 0.00 69 1012.0
20260508043514 6 0 0.0 3.2 0.00 0.00 0.00 73 1012.1
20260508043032 6 301 0.0 3.2 0.00 0.00 0.00 77 1012.1
20260508042515 6 347 0.0 1.6 0.00 0.00 0.00 75 1012.2
20260508042014 6 216 0.0 1.6 0.00 0.00 0.00 78 1012.1
20260508041534 6 0 0.0 0.0 0.00 0.00 0.00 76 1011.9
20260508041014 6 0 0.0 0.0 0.00 0.00 0.00 71 1011.7
20260508040514 6 0 0.0 0.0 0.00 0.00 0.00 70 1011.6
20260508040032 6 0 0.0 0.0 0.00 0.00 0.00 73 1011.6
20260508035517 6 0 0.0 0.0 0.00 0.00 0.00 73 1011.6
20260508035014 6 0 0.0 0.0 0.00 0.00 0.00 73 1011.5
20260508034534 7 0 0.0 0.0 0.00 0.00 0.00 73 1011.5
20260508034012 7 0 0.0 0.0 0.00 0.00 0.00 72 1011.5
20260508033513 7 0 0.0 0.0 0.00 0.00 0.00 71 1011.5
20260508033028 7 0 0.0 0.0 0.00 0.00 0.00 66 1011.4
20260508032513 7 0 0.0 0.0 0.00 0.00 0.00 67 1011.3
20260508032015 7 0 0.0 0.0 0.00 0.00 0.00 67 1011.4
20260508031532 7 0 0.0 0.0 0.00 0.00 0.00 68 1011.5
20260508031014 7 0 0.0 0.0 0.00 0.00 0.00 66 1011.5
20260508030513 7 0 0.0 0.0 0.00 0.00 0.00 65 1011.6
20260508030032 7 0 0.0 0.0 0.00 0.00 0.00 63 1011.7
20260508025513 7 0 0.0 0.0 0.00 0.00 0.00 61 1011.8
20260508025016 7 0 0.0 0.0 0.00 0.00 0.00 61 1011.9